AZU5199 SBAQ-SBKP

Flight info

Callsign AZU5199
Flight time N/A
Altitude 7000
Route MEVUT DCT UTLOT
Aircraft C208/L-SDFGR/C

Departure

Time 2026-05-07 13:35
Airport Araraquara Airport (SBAQ)

Arrival

Time N/A
Airport Viracopos International Airport (SBKP)
Time Latitude Longitude Altitude Speed Heading
2026-05-07 13:17 -21.80528 -48.13976 2275 ft 0 kts 310°
2026-05-07 13:29 -21.80503 -48.13969 2274 ft 8 kts 57°
2026-05-07 13:29 -21.80530 -48.13894 2278 ft 15 kts 125°
2026-05-07 13:29 -21.80526 -48.13807 2281 ft 14 kts 52°
2026-05-07 13:30 -21.80563 -48.13728 2283 ft 18 kts 148°
2026-05-07 13:30 -21.80700 -48.13634 2286 ft 27 kts 150°
2026-05-07 13:30 -21.80809 -48.13565 2293 ft 18 kts 149°
2026-05-07 13:30 -21.80931 -48.13485 2299 ft 22 kts 147°
2026-05-07 13:31 -21.80993 -48.13441 2306 ft 13 kts 148°
2026-05-07 13:31 -21.81092 -48.13377 2310 ft 20 kts 148°
2026-05-07 13:31 -21.81216 -48.13291 2315 ft 19 kts 148°
2026-05-07 13:31 -21.81322 -48.13227 2320 ft 15 kts 151°
2026-05-07 13:32 -21.81398 -48.13181 2322 ft 9 kts 150°
2026-05-07 13:32 -21.81455 -48.13140 2323 ft 13 kts 145°
2026-05-07 13:32 -21.81553 -48.13067 2324 ft 21 kts 150°
2026-05-07 13:32 -21.81667 -48.12998 2329 ft 22 kts 149°
2026-05-07 13:33 -21.81797 -48.12902 2333 ft 12 kts 124°
2026-05-07 13:33 -21.81854 -48.12838 2337 ft 15 kts 200°
2026-05-07 13:33 -21.81859 -48.12871 2336 ft 0 kts 323°
2026-05-07 13:33 -21.81854 -48.12875 2335 ft 6 kts 323°
2026-05-07 13:34 -21.81713 -48.12969 2330 ft 46 kts 330°
2026-05-07 13:34 -21.80770 -48.13608 2450 ft 97 kts 326°
2026-05-07 13:34 -21.80225 -48.14053 2651 ft 102 kts 326°
2026-05-07 13:35 -21.79602 -48.14475 2805 ft 109 kts 340°
2026-05-07 13:35 -21.78899 -48.14842 2976 ft 115 kts 334°
2026-05-07 13:35 -21.78206 -48.15265 3152 ft 118 kts 333°
2026-05-07 13:35 -21.77482 -48.15728 3333 ft 121 kts 332°
2026-05-07 13:36 -21.76761 -48.16199 3501 ft 126 kts 331°
2026-05-07 13:36 -21.75991 -48.16710 3673 ft 133 kts 331°
2026-05-07 13:36 -21.75206 -48.17277 3848 ft 140 kts 319°
2026-05-07 13:36 -21.74874 -48.18261 4022 ft 148 kts 269°
2026-05-07 13:37 -21.75330 -48.19246 4189 ft 153 kts 219°
2026-05-07 13:37 -21.76309 -48.19640 4368 ft 152 kts 191°
2026-05-07 13:37 -21.77252 -48.20103 4551 ft 151 kts 232°
2026-05-07 13:37 -21.77785 -48.21075 4737 ft 152 kts 242°
2026-05-07 13:38 -21.78340 -48.22047 4914 ft 152 kts 240°
2026-05-07 13:38 -21.78904 -48.23028 5090 ft 156 kts 241°
2026-05-07 13:38 -21.79479 -48.24024 5266 ft 157 kts 241°
2026-05-07 13:38 -21.80044 -48.25017 5418 ft 158 kts 242°
2026-05-07 13:39 -21.80618 -48.26019 5615 ft 158 kts 242°
2026-05-07 13:39 -21.81203 -48.27040 5788 ft 161 kts 243°
2026-05-07 13:39 -21.81793 -48.28078 5921 ft 166 kts 243°
2026-05-07 13:39 -21.82413 -48.29162 5930 ft 174 kts 243°
2026-05-07 13:40 -21.83054 -48.30292 5943 ft 179 kts 243°
2026-05-07 13:40 -21.83717 -48.31459 5942 ft 185 kts 243°
2026-05-07 13:40 -21.84387 -48.32636 5937 ft 187 kts 243°
2026-05-07 13:40 -21.85083 -48.33831 5935 ft 188 kts 240°
2026-05-07 13:41 -21.86096 -48.34726 5922 ft 192 kts 202°
2026-05-07 13:41 -21.87401 -48.34892 5920 ft 193 kts 168°
2026-05-07 13:41 -21.88677 -48.34456 5925 ft 192 kts 156°
2026-05-07 13:41 -21.89929 -48.33978 5927 ft 190 kts 157°
2026-05-07 13:42 -21.91186 -48.33519 5925 ft 191 kts 158°
2026-05-07 13:42 -21.92450 -48.33059 5929 ft 192 kts 158°
2026-05-07 13:42 -21.93704 -48.32599 5930 ft 193 kts 158°
2026-05-07 13:42 -21.94984 -48.32135 5926 ft 194 kts 158°
2026-05-07 13:43 -21.96254 -48.31669 5929 ft 192 kts 157°
2026-05-07 13:43 -21.97535 -48.31196 5929 ft 194 kts 158°
2026-05-07 13:43 -21.98816 -48.30730 5923 ft 193 kts 158°
2026-05-07 13:43 -22.00071 -48.30273 5926 ft 193 kts 158°
2026-05-07 13:44 -22.01352 -48.29805 5924 ft 193 kts 158°
2026-05-07 13:44 -22.02625 -48.29337 5922 ft 193 kts 158°
2026-05-07 13:44 -22.03896 -48.28868 5925 ft 193 kts 158°
2026-05-07 13:44 -22.05167 -48.28406 5927 ft 193 kts 158°
2026-05-07 13:45 -22.06424 -48.27948 5925 ft 193 kts 158°
2026-05-07 13:45 -22.07702 -48.27479 5925 ft 194 kts 158°
2026-05-07 13:45 -22.08983 -48.27008 5922 ft 193 kts 158°
2026-05-07 13:45 -22.10257 -48.26543 5920 ft 193 kts 158°
2026-05-07 13:46 -22.11522 -48.26077 5976 ft 190 kts 158°
2026-05-07 13:46 -22.12735 -48.25632 6141 ft 183 kts 158°
2026-05-07 13:46 -22.13926 -48.25190 6313 ft 180 kts 157°
2026-05-07 13:46 -22.15098 -48.24759 6482 ft 176 kts 158°
2026-05-07 13:47 -22.16247 -48.24339 6653 ft 173 kts 158°
2026-05-07 13:47 -22.17381 -48.23920 6819 ft 172 kts 157°
2026-05-07 13:47 -22.18514 -48.23504 6928 ft 175 kts 158°
2026-05-07 13:47 -22.19700 -48.23071 6934 ft 183 kts 158°
2026-05-07 13:48 -22.20927 -48.22626 6937 ft 187 kts 158°
2026-05-07 13:48 -22.22169 -48.22171 6939 ft 189 kts 158°
2026-05-07 13:48 -22.23419 -48.21715 6940 ft 190 kts 158°
2026-05-07 13:48 -22.24666 -48.21246 6939 ft 189 kts 155°
2026-05-07 13:49 -22.25667 -48.20395 6932 ft 184 kts 123°
2026-05-07 13:49 -22.26425 -48.19275 6930 ft 185 kts 121°
2026-05-07 13:49 -22.27198 -48.18167 6936 ft 185 kts 122°
2026-05-07 13:49 -22.27980 -48.17065 6932 ft 184 kts 122°
2026-05-07 13:50 -22.28752 -48.15956 6932 ft 185 kts 122°
2026-05-07 13:50 -22.29519 -48.14860 6937 ft 186 kts 122°
2026-05-07 13:50 -22.30307 -48.13743 6936 ft 187 kts 122°
2026-05-07 13:50 -22.31092 -48.12625 6932 ft 185 kts 122°
2026-05-07 13:51 -22.31868 -48.11509 6933 ft 186 kts 122°
2026-05-07 13:51 -22.32652 -48.10390 6935 ft 187 kts 122°
2026-05-07 13:51 -22.33440 -48.09265 6936 ft 188 kts 122°
2026-05-07 13:51 -22.34232 -48.08139 6935 ft 188 kts 122°
2026-05-07 13:52 -22.34756 -48.07392 6939 ft 188 kts 122°
2026-05-07 13:52 -22.35804 -48.05891 6935 ft 189 kts 122°
2026-05-07 13:52 -22.36594 -48.04762 6932 ft 187 kts 122°
2026-05-07 13:52 -22.37122 -48.04007 6930 ft 186 kts 122°
2026-05-07 13:53 -22.37904 -48.02894 6937 ft 186 kts 122°
2026-05-07 13:53 -22.38679 -48.01785 6936 ft 188 kts 122°
2026-05-07 13:53 -22.39471 -48.00647 6934 ft 190 kts 122°
2026-05-07 13:53 -22.40261 -47.99519 6931 ft 187 kts 122°
2026-05-07 13:54 -22.41038 -47.98407 6936 ft 185 kts 122°
2026-05-07 13:54 -22.41815 -47.97290 6928 ft 185 kts 122°
2026-05-07 13:54 -22.42590 -47.96188 6937 ft 184 kts 122°
2026-05-07 13:54 -22.43364 -47.95079 6936 ft 185 kts 122°
2026-05-07 13:55 -22.44138 -47.93968 6933 ft 184 kts 122°
2026-05-07 13:55 -22.44907 -47.92866 6931 ft 184 kts 122°
2026-05-07 13:55 -22.45670 -47.91769 6941 ft 183 kts 122°
2026-05-07 13:55 -22.46440 -47.90665 6935 ft 185 kts 123°
2026-05-07 13:56 -22.47221 -47.89560 6936 ft 185 kts 122°
2026-05-07 13:56 -22.48049 -47.88482 6939 ft 187 kts 125°
2026-05-07 13:56 -22.48859 -47.87374 6934 ft 187 kts 123°
2026-05-07 13:56 -22.49668 -47.86277 6931 ft 185 kts 124°
2026-05-07 13:57 -22.50482 -47.85195 6933 ft 186 kts 124°
2026-05-07 13:57 -22.51295 -47.84116 6935 ft 184 kts 124°
2026-05-07 13:57 -22.52097 -47.83044 6943 ft 182 kts 124°
2026-05-07 13:57 -22.52889 -47.81990 6945 ft 184 kts 124°
2026-05-07 13:58 -22.53698 -47.80916 6946 ft 185 kts 124°
2026-05-07 13:58 -22.54512 -47.79835 6944 ft 184 kts 124°
2026-05-07 13:58 -22.55321 -47.78758 6941 ft 184 kts 124°
2026-05-07 13:58 -22.56126 -47.77684 6946 ft 183 kts 124°
2026-05-07 13:59 -22.56936 -47.76607 6943 ft 185 kts 124°
2026-05-07 13:59 -22.57748 -47.75521 6939 ft 185 kts 124°
2026-05-07 13:59 -22.58545 -47.74460 6945 ft 185 kts 124°
2026-05-07 13:59 -22.59357 -47.73382 6941 ft 183 kts 124°
2026-05-07 14:00 -22.60159 -47.72312 6942 ft 183 kts 125°
2026-05-07 14:00 -22.60960 -47.71242 6945 ft 183 kts 124°
2026-05-07 14:00 -22.61765 -47.70164 6940 ft 183 kts 124°
2026-05-07 14:00 -22.62570 -47.69097 6942 ft 183 kts 124°
2026-05-07 14:01 -22.63372 -47.68030 6946 ft 184 kts 125°
2026-05-07 14:01 -22.64182 -47.66949 6943 ft 185 kts 124°
2026-05-07 14:01 -22.64982 -47.65879 6940 ft 184 kts 124°
2026-05-07 14:01 -22.65784 -47.64808 6942 ft 182 kts 124°
2026-05-07 14:02 -22.66581 -47.63739 6944 ft 183 kts 124°
2026-05-07 14:02 -22.67387 -47.62670 6946 ft 183 kts 125°
2026-05-07 14:02 -22.68190 -47.61596 6941 ft 183 kts 124°
2026-05-07 14:02 -22.68988 -47.60530 6946 ft 185 kts 125°
2026-05-07 14:03 -22.69810 -47.59438 6943 ft 184 kts 125°
2026-05-07 14:03 -22.70598 -47.58369 6932 ft 183 kts 121°
2026-05-07 14:03 -22.71299 -47.57218 6935 ft 182 kts 119°
2026-05-07 14:03 -22.72016 -47.56077 6929 ft 182 kts 120°
2026-05-07 14:04 -22.72718 -47.54961 6930 ft 181 kts 120°
2026-05-07 14:04 -22.73430 -47.53827 6929 ft 180 kts 119°
2026-05-07 14:04 -22.74129 -47.52711 6935 ft 181 kts 120°
2026-05-07 14:04 -22.74837 -47.51582 6929 ft 180 kts 120°
2026-05-07 14:05 -22.75536 -47.50468 6928 ft 176 kts 120°
2026-05-07 14:05 -22.76201 -47.49397 6924 ft 171 kts 119°
2026-05-07 14:05 -22.76863 -47.48334 6927 ft 170 kts 120°
2026-05-07 14:05 -22.77521 -47.47283 6922 ft 167 kts 119°
2026-05-07 14:06 -22.78167 -47.46245 6924 ft 165 kts 119°
2026-05-07 14:06 -22.78812 -47.45212 6922 ft 166 kts 119°
2026-05-07 14:06 -22.79460 -47.44180 6917 ft 158 kts 119°
2026-05-07 14:06 -22.80001 -47.43316 6915 ft 121 kts 117°
2026-05-07 14:07 -22.80426 -47.42621 6856 ft 106 kts 115°
2026-05-07 14:07 -22.80837 -47.41906 6458 ft 116 kts 113°
2026-05-07 14:07 -22.81242 -47.41135 6070 ft 122 kts 111°
2026-05-07 14:07 -22.81666 -47.40312 5656 ft 128 kts 112°
2026-05-07 14:08 -22.82109 -47.39458 5231 ft 131 kts 113°
2026-05-07 14:08 -22.82574 -47.38596 4803 ft 136 kts 124°
2026-05-07 14:08 -22.83306 -47.37895 4356 ft 141 kts 129°
2026-05-07 14:08 -22.83893 -47.37054 3921 ft 139 kts 121°
2026-05-07 14:09 -22.84426 -47.36202 3477 ft 135 kts 121°
2026-05-07 14:09 -22.84960 -47.35363 3031 ft 134 kts 123°
2026-05-07 14:09 -22.85511 -47.34547 2580 ft 133 kts 124°
2026-05-07 14:09 -22.86034 -47.33782 2420 ft 110 kts 124°
2026-05-07 14:10 -22.86415 -47.33196 2428 ft 84 kts 119°
2026-05-07 14:10 -22.86707 -47.32680 2298 ft 79 kts 118°
2026-05-07 14:10 -22.86989 -47.32189 2154 ft 71 kts 124°
2026-05-07 14:10 -22.87231 -47.31825 2696 ft 86 kts 88°